Weather Roundup
Issued by NWS

Home | Current Version | Previous Version | Text Only | Print | Product List | Glossary On
Versions: 1 2 3 4 5 6 7 8 9 10 11 12 13 14 15 16 17 18 19 20 21 22 23 24 25 26 27 28 29 30 31 32 33 34 35 36 37 38 39 40 41 42 43 44 45 46 47 48 49 50
000
NZUS93 KARX 172010
HRRWXR

CURRENT HOURLY OBSERVATIONS ACROSS
MUCH OF THE UPPER MISSISSIPPI VALLEY
NATIONAL WEATHER SERVICE LA CROSSE WI
200 PM CST WED JAN 17 2018


...SOUTHEAST MINNESOTA...


CITY           SKY/WX    TMP DP  RH WIND       PRES   REMARKS
ROCHESTER      FAIR      20  11  68 SW20G29   30.19F WCI   4
ROCHESTER/MAYO FAIR      24   8  51 SW12G24   30.20F WCI  13
WINONA         FAIR      28  10  47 W9        30.22F WCI  20
AUSTIN         FAIR      21   9  58 SW17      30.23F WCI   7
ALBERT LEA     FAIR      21   9  58 SW18      30.21F WCI   6
DODGE CENTER   FAIR      21  10  63 SW20      30.17F WCI   6
PRESTON        FAIR      22   8  56 SW21G28   30.21F WCI   6
OWATONNA       FAIR      21  12  68 S17       30.18F WCI   7
FARIBAULT      FAIR      21  12  68 S12G18    30.17F WCI   9
$$

...ELSEWHERE IN MINNESOTA...


CITY           SKY/WX    TMP DP  RH WIND       PRES   REMARKS
MINNEAPOLIS    FAIR      24   9  52 SW14G21   30.15F WCI  12
INTNL FALLS    FAIR      25   9  50 W10G18    29.82F WCI  15
DULUTH         FAIR      22   7  52 SW18G28   29.87F WCI   7
RED WING       FAIR      25   5  42 SW8       30.17F WCI  16
REDWOOD FALLS  SUNNY     27  15  61 SW12      30.13F WCI  17
MANKATO        FAIR      26  14  60 S14       30.17F WCI  14
WORTHINGTON    SUNNY     25  15  66 SW18G28   30.17F WCI  11
FAIRMONT       SUNNY     26  15  63 SW21G28   30.20F WCI  12
$$

...SOUTHWEST WISCONSIN...


CITY           SKY/WX    TMP DP  RH WIND       PRES   REMARKS
LA CROSSE      FAIR      24   8  50 S14G23    30.27F WCI  12
PRAIRIE DU CHI FAIR      22   6  49 SW14      30.36F WCI   9
BOSCOBEL       FAIR      24   6  46 SW13G21   30.34F WCI  12
LONE ROCK      FAIR      22   8  55 SW15G24   30.32F WCI   9
PLATTEVILLE    FAIR      21  10  62 SW17      30.35F WCI   7
FORT MC COY    FAIR      26   5  42 SW9G21    30.25F WCI  16
CAMP DOUGLAS   MOSUNNY   23   5  46 SW16G26   30.21F WCI  10
MAUSTON-NEW LI FAIR      24   4  43 SW12G21   30.23F WCI  13
VIROQUA        FAIR      21   8  55 SW16G23   30.26F WCI   7
WIS DELLS      FAIR      21   5  50 W17G24    30.25F WCI   7
$$

...ELSEWHERE IN WISCONSIN...


CITY           SKY/WX    TMP DP  RH WIND       PRES   REMARKS
MILWAUKEE      FAIR      22   9  57 SW16G30   30.31F WCI   8
MADISON        FAIR      20   8  60 SW14G25   30.29F WCI   7
GREEN BAY      FAIR      23   6  48 SW14G24   30.14F WCI  11
EAU CLAIRE     FLURRIES  24   7  48 SW14G23   30.13F WCI  12
BLACK RVR FLS  FAIR      27   3  35 SW9G21    30.21F WCI  18
MEDFORD        FAIR      19   4  51 SW10G18   30.07F WCI   8
WAUSAU         FAIR      20   3  48 SW15G22   30.09F WCI   6
WIS RAPIDS     FAIR      22   3  44 W15G25    30.19F WCI   9
MARSHFIELD     FAIR      20   5  52 SW13      30.12F WCI   7
RICE LAKE      FAIR      23   6  48 CALM      30.10F
$$

...NORTHEAST IOWA...


CITY           SKY/WX    TMP DP  RH WIND       PRES   REMARKS
WATERLOO       FAIR      21   8  57 SW16      30.36F WCI   7
DUBUQUE        FAIR      19   8  62 SW22      30.36F WCI   2
DECORAH        FAIR      21   7  53 SW12G21   30.28F WCI   9
MASON CITY     SUNNY     23  10  57 SW21G29   30.27F WCI   8
CHARLES CITY   FAIR      23  10  58 SW15G22   30.30F WCI  10
OELWEIN        FAIR      21  10  63 SW16G23   30.35F WCI   7
$$

...ELSEWHERE IN IOWA...


CITY           SKY/WX    TMP DP  RH WIND       PRES   REMARKS
DES MOINES     MOSUNNY   24   9  52 SW15      30.41F WCI  11
IOWA CITY      FAIR      22   9  57 SW15      30.48F WCI   9
FORT DODGE     SUNNY     25  12  58 SW18G29   30.31F WCI  11
MARSHALLTOWN   SUNNY     22   9  57 SW20G28   30.38F WCI   7
CEDAR RAPIDS   FAIR      21  10  62 SW14      30.41F WCI   8
$$

...NORTHERN ILLINOIS...


CITY           SKY/WX    TMP DP  RH WIND       PRES   REMARKS
CHICAGO-OHARE  FAIR      19   8  62 W15G22    30.42F WCI   5
CHICAGO-MIDWAY FAIR      19   8  62 W15       30.45F WCI   5
MOLINE         FAIR      21  11  65 SW13      30.47F WCI   9
ROCKFORD       FAIR      16   6  65 SW15      30.43F WCI   1
PEORIA         FAIR      20   8  60 SW9       30.52F WCI   9
$$

NOTE: "FAIR" INDICATES FEW OR NO CLOUDS BELOW 12,000 FEET WITH NO
SIGNIFICANT WEATHER AND/OR OBSTRUCTIONS TO VISIBILITY. WIND
SPEEDS ARE IN MILES-PER-HOUR.




USA.gov is the U.S. government's official web portal to all federal, state and local government web resources and services.